When you browse on this site, cookies collect data to enhance your experience and personalize the content and advertising you see.
Visit our Privacy Policy to learn more. By continuing to use the site, you agree to this use of cookies and data.
  • In Lithuania
  • List of Countries
  • For 7 days
  • Water Temperature
  • Satellite Maps
  • Weather Map
  • Weather Widgets
  • user-avatar
    Login

    Hourly Weather Zelenkovschizna

    Today, 24 April, Wednesday

    Time Temperature Precipitation Wind Pressure Humidity
    00:00 +10°C° 0 mm 5 mps 755 mmHg 51%
    01:00 +9°C° 0 mm 5 mps 755 mmHg 52%
    02:00 +9°C° 0 mm 5 mps 755 mmHg 53%
    03:00 +9°C° 0 mm 6 mps 755 mmHg 54%
    04:00 +8°C° 0 mm 6 mps 755 mmHg 55%
    05:00 +8°C° 0 mm 6 mps 755 mmHg 56%
    06:00 +9°C° 0 mm 7 mps 755 mmHg 54%
    07:00 +10°C° 0 mm 8 mps 755 mmHg 51%
    08:00 +11°C° 0 mm 9 mps 755 mmHg 49%
    09:00 +13°C° 0 mm 9 mps 755 mmHg 45%
    10:00 +15°C° 0 mm 9 mps 755 mmHg 42%
    11:00 +16°C° 0 mm 10 mps 755 mmHg 38%
    12:00 +17°C° 0 mm 9 mps 755 mmHg 37%
    13:00 +18°C° 0 mm 9 mps 755 mmHg 36%
    14:00 +18°C° 0 mm 9 mps 755 mmHg 35%
    15:00 +18°C° 0 mm 9 mps 754 mmHg 38%
    16:00 +18°C° 0 mm 8 mps 754 mmHg 40%
    17:00 +18°C° 0 mm 7 mps 754 mmHg 43%
    18:00 +16°C° 0 mm 7 mps 754 mmHg 47%
    19:00 +15°C° 0 mm 6 mps 754 mmHg 51%
    20:00 +13°C° 0 mm 5 mps 754 mmHg 55%
    21:00 +13°C° 0 mm 5 mps 754 mmHg 55%
    22:00 +12°C° 0 mm 5 mps 754 mmHg 56%
    23:00 +12°C° 0 mm 5 mps 754 mmHg 57%

    Tomorrow, 25 April, Thursday

    Time Temperature Precipitation Wind Pressure Humidity
    00:00 +12°C° 0 mm 5 mps 754 mmHg 58%
    01:00 +10°C° 0 mm 5 mps 754 mmHg 60%
    02:00 +10°C° 0 mm 5 mps 753 mmHg 61%
    03:00 +10°C° 0 mm 5 mps 753 mmHg 62%
    04:00 +10°C° 0 mm 5 mps 753 mmHg 62%
    05:00 +9°C° 0 mm 5 mps 753 mmHg 63%
    06:00 +10°C° 0 mm 5 mps 753 mmHg 63%
    07:00 +11°C° 0 mm 6 mps 753 mmHg 63%
    08:00 +13°C° 0 mm 6 mps 753 mmHg 63%
    09:00 +14°C° 0 mm 6 mps 753 mmHg 60%
    10:00 +16°C° 0 mm 6 mps 753 mmHg 57%
    11:00 +19°C° 0 mm 6 mps 753 mmHg 54%
    12:00 +20°C° 0 mm 6 mps 753 mmHg 52%
    13:00 +21°C° 0 mm 6 mps 752 mmHg 51%
    14:00 +22°C° 0 mm 6 mps 752 mmHg 49%
    15:00 +22°C° 0 mm 6 mps 752 mmHg 50%
    16:00 +22°C° 0 mm 6 mps 751 mmHg 51%
    17:00 +21°C° 0 mm 6 mps 751 mmHg 52%
    18:00 +20°C° 0 mm 5 mps 751 mmHg 57%
    19:00 +17°C° 0 mm 5 mps 751 mmHg 62%
    20:00 +17°C° 0 mm 4 mps 751 mmHg 67%
    21:00 +15°C° 0.2 mm 4 mps 751 mmHg 71%
    22:00 +14°C° 0.2 mm 4 mps 751 mmHg 76%
    23:00 +13°C° 0.2 mm 4 mps 751 mmHg 80%

    Day after tomorrow, 26 April, Friday

    Time Temperature Precipitation Wind Pressure Humidity
    00:00 +13°C° 0.2 mm 4 mps 751 mmHg 84%
    01:00 +12°C° 0.2 mm 4 mps 750 mmHg 88%
    02:00 +12°C° 0.2 mm 3 mps 750 mmHg 91%
    03:00 +11°C° 0.1 mm 3 mps 750 mmHg 92%
    04:00 +11°C° 0.1 mm 3 mps 750 mmHg 94%
    05:00 +11°C° 0.1 mm 3 mps 750 mmHg 95%
    06:00 +12°C° 0 mm 3 mps 749 mmHg 91%
    07:00 +13°C° 0 mm 4 mps 749 mmHg 87%
    08:00 +15°C° 0 mm 4 mps 749 mmHg 83%
    09:00 +18°C° 0 mm 4 mps 749 mmHg 77%
    10:00 +20°C° 0 mm 4 mps 749 mmHg 71%
    11:00 +22°C° 0 mm 5 mps 749 mmHg 65%
    12:00 +23°C° 0.2 mm 5 mps 748 mmHg 61%
    13:00 +25°C° 0.2 mm 5 mps 748 mmHg 57%
    14:00 +26°C° 0.2 mm 5 mps 747 mmHg 53%
    15:00 +25°C° 0.9 mm 5 mps 747 mmHg 56%
    16:00 +23°C° 0.9 mm 5 mps 747 mmHg 59%
    17:00 +22°C° 0.9 mm 4 mps 746 mmHg 62%
    18:00 +21°C° 0.4 mm 4 mps 746 mmHg 69%
    19:00 +20°C° 0.4 mm 4 mps 746 mmHg 76%
    20:00 +18°C° 0.4 mm 4 mps 745 mmHg 83%
    21:00 +18°C° 0 mm 3 mps 745 mmHg 85%
    22:00 +17°C° 0 mm 3 mps 745 mmHg 88%
    23:00 +16°C° 0 mm 3 mps 745 mmHg 91%

    27 April, Saturday

    Time Temperature Precipitation Wind Pressure Humidity
    00:00 +16°C° 0 mm 3 mps 745 mmHg 91%
    01:00 +14°C° 0 mm 3 mps 745 mmHg 92%
    02:00 +15°C° 0 mm 2 mps 745 mmHg 93%
    03:00 +15°C° 0.2 mm 2 mps 744 mmHg 93%
    04:00 +15°C° 0.2 mm 2 mps 744 mmHg 93%
    05:00 +14°C° 0.2 mm 2 mps 744 mmHg 93%
    06:00 +15°C° 0.3 mm 2 mps 744 mmHg 90%
    07:00 +16°C° 0.3 mm 3 mps 744 mmHg 86%
    08:00 +17°C° 0.3 mm 3 mps 744 mmHg 83%
    09:00 +19°C° 0 mm 3 mps 744 mmHg 76%
    10:00 +21°C° 0 mm 4 mps 744 mmHg 68%
    11:00 +23°C° 0 mm 5 mps 745 mmHg 61%
    12:00 +23°C° 0 mm 5 mps 744 mmHg 58%
    13:00 +25°C° 0 mm 5 mps 744 mmHg 54%
    14:00 +24°C° 0 mm 6 mps 744 mmHg 51%
    15:00 +25°C° 0 mm 5 mps 744 mmHg 53%
    16:00 +23°C° 0 mm 4 mps 744 mmHg 55%
    17:00 +23°C° 0 mm 4 mps 744 mmHg 57%
    18:00 +21°C° 0.3 mm 3 mps 744 mmHg 65%
    19:00 +19°C° 0.3 mm 3 mps 744 mmHg 74%
    20:00 +18°C° 0.3 mm 2 mps 745 mmHg 82%
    21:00 +17°C° 1 mm 3 mps 745 mmHg 83%
    22:00 +16°C° 1 mm 3 mps 745 mmHg 84%
    23:00 +14°C° 1 mm 4 mps 746 mmHg 85%

    28 April, Sunday

    Time Temperature Precipitation Wind Pressure Humidity
    00:00 +13°C° 0.1 mm 4 mps 746 mmHg 85%
    01:00 +13°C° 0.1 mm 4 mps 746 mmHg 85%
    02:00 +12°C° 0.1 mm 4 mps 746 mmHg 85%
    03:00 +11°C° 0 mm 3 mps 746 mmHg 86%
    04:00 +10°C° 0 mm 3 mps 747 mmHg 87%
    05:00 +10°C° 0 mm 3 mps 747 mmHg 88%
    06:00 +10°C° 0 mm 3 mps 748 mmHg 86%
    07:00 +10°C° 0 mm 3 mps 748 mmHg 84%
    08:00 +11°C° 0 mm 3 mps 748 mmHg 82%
    09:00 +12°C° 0 mm 3 mps 749 mmHg 77%
    10:00 +13°C° 0 mm 4 mps 749 mmHg 72%
    11:00 +15°C° 0 mm 4 mps 749 mmHg 67%
    12:00 +17°C° 0 mm 4 mps 749 mmHg 65%
    13:00 +18°C° 0 mm 4 mps 749 mmHg 62%
    14:00 +18°C° 0 mm 4 mps 749 mmHg 59%
    15:00 +18°C° 0 mm 4 mps 749 mmHg 59%
    16:00 +18°C° 0 mm 4 mps 749 mmHg 59%
    17:00 +18°C° 0 mm 3 mps 749 mmHg 60%
    18:00 +17°C° 0 mm 3 mps 749 mmHg 65%
    19:00 +16°C° 0 mm 3 mps 750 mmHg 70%
    20:00 +14°C° 0 mm 2 mps 750 mmHg 74%
    21:00 +14°C° 0 mm 2 mps 750 mmHg 77%
    22:00 +13°C° 0 mm 2 mps 750 mmHg 79%
    23:00 +13°C° 0 mm 2 mps 750 mmHg 82%

    29 April, Monday

    Time Temperature Precipitation Wind Pressure Humidity
    00:00 +12°C° 0 mm 2 mps 750 mmHg 84%
    01:00 +12°C° 0 mm 2 mps 750 mmHg 86%
    02:00 +12°C° 0 mm 2 mps 750 mmHg 88%
    03:00 +10°C° 0 mm 2 mps 750 mmHg 91%
    04:00 +10°C° 0 mm 2 mps 750 mmHg 94%
    05:00 +10°C° 0 mm 2 mps 750 mmHg 96%
    06:00 +11°C° 0 mm 3 mps 750 mmHg 91%
    07:00 +12°C° 0 mm 3 mps 750 mmHg 87%
    08:00 +14°C° 0 mm 3 mps 750 mmHg 82%
    09:00 +16°C° 0 mm 3 mps 750 mmHg 77%
    10:00 +17°C° 0 mm 3 mps 750 mmHg 73%
    11:00 +18°C° 0 mm 3 mps 750 mmHg 69%
    12:00 +18°C° 0 mm 3 mps 750 mmHg 69%
    13:00 +18°C° 0 mm 3 mps 750 mmHg 69%
    14:00 +18°C° 0 mm 3 mps 750 mmHg 69%
    15:00 +18°C° 0 mm 3 mps 749 mmHg 70%
    16:00 +18°C° 0 mm 2 mps 749 mmHg 71%
    17:00 +18°C° 0 mm 2 mps 749 mmHg 73%
    18:00 +17°C° 0 mm 2 mps 749 mmHg 78%
    19:00 +16°C° 0 mm 2 mps 749 mmHg 84%
    20:00 +15°C° 0 mm 2 mps 749 mmHg 89%
    21:00 +15°C° 0 mm 2 mps 749 mmHg 90%
    22:00 +14°C° 0 mm 2 mps 749 mmHg 92%
    23:00 +14°C° 0 mm 2 mps 749 mmHg 93%
    Show more